Погода в Старчиках

Россия / Тамбовская область     52°31′05″N   41°29′53″E
темп.,
°C
ветер,
м/с
пор.,
м/с
влажн.,
%
обл.,
%
осадки,
мм/ч
давл.,
гПа
погр.,
м
10 апреля, сб
сб1000:00+3с366764 0.0 102693
03:00+2с3877100 0.0 1027161
06:00+1ссв378434 0.0 1027129
09:00+6св5859100 0.0 1027609
12:00+9св674220 0.0 10251176
15:00+10ссв6738100 0.0 10241228
18:00+9св57485 0.0 1024537
21:00+4ссв377474 0.0 1025190
11 апреля, вс
вс1100:00+3с4980100 0.0 1026194
03:00+3с4117851 0.0 1026256
06:00+2с41282100 0.0 1028278
09:00+7ссв71156100 0.0 1028551
12:00+11св793790 0.0 1028870
15:00+13св7939100 0.0 1027972
18:00+10всв61176100 0.0 1028728
21:00+7св51187100 0.0 1028467
12 апреля, пн
пн1200:00+7св4991100 0.0 1028287
03:00+6св4895100 0.0 1028206
06:00+6св489598 0.0 1028190
09:00+11в5774100 0.0 1027293
12:00+18вюв5844100 0.0 1026712
15:00+21вюв683377 0.0 10251535
18:00+18юв51046100 0.0 1025226
21:00+12вюв4116546 0.0 1027171
13 апреля, вт
вт1300:00+10вюв412728 0.0 1027198
03:00+9вюв4126866 0.0 1027188
06:00+7вюв41069100 0.0 1027170
09:00+13юв5851100 0.0 1026365
12:00+18юв68377 0.0 10261083
15:00+20ююв573240 0.0 10251720
18:00+17юв484620 0.0 1025171
21:00+13юв412605 0.0 1025199
14 апреля, ср
ср1400:00+11юв4106532 0.0 1025172
03:00+9вюв376779 0.0 102598
06:00+8вюв4969100 0.0 1024155
09:00+14вюв6104985 0.0 1024398
12:00+19юв683465 0.0 10221135
15:00+20юв6829100 0.0 10202097
18:00+17юв4842100 0.0 1020182
21:00+13вюв411578 0.0 1020180